CAPE
9 38 6 179 187 36 3 5 4 18 39 1 13 12 196 372 79 3 330 453 1134 1320 1631 2039 2418 2298 2389 2239 2313 2312 1936 1995 2220 2071 1924 1853 1856 1784 1907 1910 1989 1880 1855 1921 2048 2225 1598 1780 2291
14 38 471 436 44 0 0 1 12 22 0 16 38 108 245 420 343 337 370 830 1170 1351 1509 1860 2406 2664 2396 2451 2270 2246 2183 2074 2232 2038 1926 2110 1971 1851 1596 1690 1668 1554 1804 1897 1929 1782 2204 1491 1656
389 748 360 236 86 0 0 14 6 0 7 32 46 130 275 124 269 282 356 921 1119 1198 1545 1624 2055 2304 2281 2317 2170 2234 2125 2121 2086 1890 1942 2120 1776 1740 1740 1664 1506 1522 1560 1564 1581 1781 1965 1780 1694
621 815 500 287 25 15 38 0 6 9 3 19 74 141 178 186 272 334 669 908 915 1274 1261 2164 2021 2124 2115 2298 1952 2149 2075 2021 2102 2119 2149 1989 1880 1734 1769 1530 1540 1900 1647 1513 1616 1691 1701 1667 1826
376 276 101 110 30 40 46 19 22 25 12 17 37 118 128 243 250 376 591 765 823 1070 1198 1583 2298 2009 2039 1648 1504 1980 1886 1895 1950 1925 1986 1921 1797 1606 1695 1462 1417 1475 1560 1571 1555 1423 1406 1423 1467
378 38 74 24 68 52 55 45 8 0 3 35 66 77 87 137 117 353 487 568 821 904 915 1488 2108 1692 1886 1891 1031 1397 1589 1782 1817 1991 1915 1673 1429 1395 1391 1317 1217 1202 1263 1565 1495 1515 1434 1369 1490
444 45 14 187 230 191 79 59 0 0 0 6 33 44 68 124 239 323 407 635 650 600 890 1068 1173 1252 1356 1037 1234 1474 1528 1630 1633 1520 1403 1242 1035 995 1069 1045 1036 1115 1199 1257 1594 1363 1524 1059 1217
348 91 86 70 203 223 86 15 4 1 0 3 36 44 18 180 294 219 383 444 542 596 767 649 586 896 919 855 1465 1431 1323 1255 1193 1158 1129 1240 1493 1708 1475 1249 1661 865 984 803 1176 1138 1120 1226 1571
27 12 4 1 91 306 310 18 14 0 0 0 2 42 57 225 76 126 227 331 427 527 599 469 322 489 637 838 950 1430 1345 1361 1377 1282 1394 1361 792 824 869 1123 1048 962 1205 1070 1131 1226 889 1457 1655
253 0 0 38 97 232 324 197 292 0 0 17 46 116 99 43 48 78 73 14 181 362 379 298 195 262 378 859 706 821 1034 717 495 395 742 653 647 881 1339 1643 1268 1335 1359 1237 1159 989 1085 1277 962
199 40 29 86 85 482 208 182 94 0 0 0 18 110 85 53 32 0 3 1 62 98 157 149 88 101 177 269 304 390 538 327 0 84 447 551 950 680 4 5 264 1128 1494 1329 1364 1441 1067 846 792
34 14 26 46 261 278 192 161 204 235 186 24 18 71 89 68 0 0 0 0 0 40 59 28 0 24 0 0 165 244 522 31 120 367 464 340 681 50 0 0 0 370 859 1022 1004 930 788 552 457
50 8 32 199 231 299 58 103 151 99 60 0 38 67 58 45 0 0 0 0 0 4 0 0 5 5 0 0 28 283 419 194 129 230 206 0 36 53 0 0 0 117 232 507 677 744 692 790 807
55 60 230 347 280 68 9 30 67 59 44 1 27 7 12 1 0 0 0 0 0 0 0 0 0 0 0 13 54 362 354 575 19 195 110 0 0 21 22 0 25 404 191 62 216 378 672 1036 1112
103 126 140 189 164 157 79 18 2 0 0 0 0 0 0 0 0 0 0 0 0 0 0 0 0 0 0 70 139 145 321 366 0 115 257 145 0 97 88 0 0 371 361 379 105 457 689 768 751
45 4 42 79 112 120 29 0 38 26 1 1 0 0 0 0 0 0 0 0 0 0 0 0 0 2 18 62 66 166 299 281 0 0 258 313 379 415 68 24 37 338 608 540 650 808 765 437 214
0 5 1 73 73 159 61 0 63 1 61 31 0 0 0 0 0 0 0 0 0 0 0 0 7 55 44 46 86 301 160 262 189 89 568 729 485 891 295 62 122 514 707 768 779 783 821 405 516
8 51 42 30 48 43 36 0 0 69 150 55 0 0 0 0 0 0 0 0 0 0 0 0 58 93 98 52 242 393 218 149 368 551 699 815 1031 1179 312 170 141 302 488 370 348 488 481 455 408
0 0 0 16 52 3 0 0 3 83 215 79 7 0 0 0 0 0 0 0 0 0 0 0 123 42 13 124 282 349 617 335 404 621 673 719 482 397 285 20 28 129 236 127 75 1 7 127 80
0 0 0 95 86 1 0 0 0 35 125 13 0 0 0 0 0 0 0 0 0 0 0 60 91 0 0 69 157 100 252 288 495 503 481 573 781 473 209 0 0 0 31 0 0 0 0 0 0
0 0 0 4 97 11 0 0 0 0 52 0 0 0 0 0 0 0 0 0 0 0 3 38 0 0 0 16 273 270 479 387 493 251 236 948 1497 385 137 0 3 0 0 0 0 0 0 0 0
0 0 0 100 17 0 0 0 0 0 0 0 0 0 1 0 0 0 0 0 2 28 1 18 0 0 0 1 485 386 524 583 530 280 191 769 1224 830 359 126 455 6 0 0 0 0 0 0 0
0 0 0 37 9 10 0 0 0 0 0 0 0 0 0 1 0 0 0 0 6 28 5 0 0 0 0 39 346 501 466 380 141 95 242 647 1027 1489 1592 1401 1161 24 0 0 0 0 0 0 0
0 0 0 0 0 0 0 0 0 0 0 0 0 0 7 26 0 0 0 0 0 12 14 35 8 0 0 6 181 298 563 302 277 166 224 421 713 1292 1674 1413 1440 190 0 0 0 0 0 0 0
0 0 0 0 0 0 0 0 0 0 1 0 0 0 0 111 0 0 0 0 0 0 0 114 53 63 0 54 271 148 344 236 357 280 198 325 681 945 1701 1565 1316 967 616 252 0 0 0 0 0
0 0 0 0 0 0 0 0 0 0 0 0 0 0 0 73 0 0 0 0 5 14 16 199 134 116 29 147 469 637 676 320 258 210 178 247 558 868 1343 1770 1493 1141 893 495 20 0 0 0 0
0 0 0 0 0 0 0 0 0 0 0 0 0 0 1 0 0 0 0 0 3 17 41 227 277 207 23 107 281 616 993 854 627 316 213 304 282 591 1179 1738 1739 1579 1503 1120 407 433 177 53 0
0 0 0 0 0 0 0 0 0 0 0 0 0 0 21 49 55 0 0 0 17 35 35 185 310 261 64 51 135 359 590 840 872 583 433 444 484 546 835 1541 1838 1865 1911 1761 1109 977 606 271 364
0 0 0 0 0 0 0 0 0 0 0 11 8 0 0 102 123 45 0 0 0 3 3 126 413 284 82 47 39 153 486 1028 1162 901 728 577 592 721 784 907 1602 1933 2077 1957 1718 1629 1562 1417 1488
0 0 0 0 0 0 0 0 0 0 0 21 57 118 116 129 177 157 3 0 0 11 13 103 459 447 261 147 175 84 356 915 1265 1081 1056 749 737 835 1118 1360 1419 1673 1955 2225 2043 1973 2083 1951 1935
CIN
-184 -98 -174 -53 -20 -61 -15 -32 -81 -81 -83 -32 -131 -154 -99 -77 -124 -15 -99 -65 -17 -4 -4 -3 -0 -0 -0 -0 -0 -0 -0 -0 -0 -0 -0 -0 -0 -0 -0 -0 -0 -0 -0 -0 -0 -0 -6 -2 -0
-156 -98 -6 -12 -70 -0 -0 -23 -71 -122 -0 -176 -140 -118 -111 -61 -79 -92 -74 -1 -10 -5 -6 -3 -0 -0 -0 -0 -0 -0 -0 -0 -0 -0 -0 -0 -0 -0 -0 -0 -0 -0 -0 -0 -0 -0 -0 -14 -8
-26 -2 -10 -47 -71 -0 -0 -148 -155 -0 -167 -144 -168 -126 -85 -126 -92 -94 -89 -2 -6 -7 -9 -2 -0 -0 -0 -0 -0 -0 -0 -0 -0 -0 -0 -0 -0 -0 -0 -0 -0 -0 -0 -0 -0 -0 -0 -1 -0
-0 -0 -26 -38 -41 -68 -109 -0 -147 -133 -147 -169 -133 -109 -87 -88 -81 -85 -7 -2 -7 -5 -6 -1 -0 -0 -0 -0 -0 -0 -0 -0 -0 -0 -0 -0 -0 -0 -0 -0 -0 -0 -0 -0 -0 -0 -0 -6 -4
-16 -42 -67 -58 -56 -83 -94 -116 -125 -163 -178 -174 -172 -99 -92 -43 -91 -59 -10 -1 -10 -5 -6 -1 -0 -0 -0 -0 -0 -0 -0 -0 -0 -0 -0 -0 -0 -0 -0 -0 -0 -0 -0 -0 -0 -0 -3 -4 -11
-18 -82 -63 -62 -73 -63 -62 -163 -182 -65 -126 -199 -173 -156 -103 -78 -125 -31 -9 -12 -5 -7 -14 -3 -0 -0 -0 -0 -0 -0 -0 -0 -0 -0 -0 -0 -0 -0 -1 -2 -3 -0 -0 -0 -0 -0 -2 -16 -18
-15 -106 -96 -73 -37 -53 -91 -164 -0 -0 -0 -243 -237 -184 -115 -79 -40 -31 -8 -6 -7 -20 -10 -9 -5 -2 -0 -0 -0 -0 -0 -0 -0 -0 -0 -0 -3 -7 -7 -5 -3 -0 -1 -4 -1 -13 -14 -25 -18
-85 -141 -77 -92 -16 -33 -92 -131 -165 -110 -0 -187 -226 -231 -57 -93 -31 -37 -4 -4 -2 -7 -11 -30 -39 -14 -10 -9 -0 -0 -0 -0 -7 -8 -5 -2 -0 -3 -2 -7 -2 -8 -11 -48 -32 -25 -18 -18 -7
-252 -97 -101 -35 -40 -37 -48 -129 -126 -0 -0 -0 -187 -255 -181 -77 -143 -82 -20 -2 -1 -2 -19 -51 -80 -51 -31 -17 -8 -1 -0 -0 -0 -9 -8 -13 -58 -65 -32 -8 -4 -6 -4 -38 -35 -22 -41 -16 -19
-107 -0 -16 -111 -112 -55 -57 -78 -55 -0 -0 -127 -176 -182 -141 -170 -172 -142 -95 -41 -64 -27 -42 -85 -105 -105 -83 -15 -52 -44 -42 -73 -110 -141 -92 -109 -102 -67 -18 -5 -0 -1 -1 -29 -37 -47 -42 -62 -83
-133 -90 -103 -116 -106 -37 -110 -109 -114 -41 -0 -0 -143 -156 -145 -159 -214 -0 -29 -11 -139 -130 -97 -121 -145 -154 -147 -104 -131 -127 -116 -175 -0 -263 -161 -136 -94 -115 -38 -44 -201 -59 -14 -49 -57 -55 -86 -113 -120
-118 -153 -131 -176 -116 -97 -137 -116 -89 -85 -75 -144 -109 -116 -182 -139 -0 -0 -0 -0 -0 -154 -165 -204 -0 -197 -0 -0 -144 -146 -124 -231 -281 -198 -182 -186 -134 -294 -0 -0 -0 -194 -118 -116 -129 -129 -137 -152 -152
-139 -174 -189 -172 -138 -116 -189 -90 -113 -111 -135 -35 -104 -77 -125 -163 -0 -0 -0 -0 -0 -58 -0 -0 -154 -179 -0 -5 -227 -148 -140 -199 -242 -243 -248 -0 -162 -311 -0 -0 -113 -359 -271 -194 -172 -146 -139 -129 -114
-213 -197 -142 -136 -147 -181 -114 -161 -139 -145 -152 -153 -112 -91 -93 -7 -0 -0 -0 -0 -0 -0 -0 -0 -0 -0 -0 -255 -208 -148 -168 -143 -242 -267 -324 -0 -0 -279 -428 -0 -229 -245 -308 -393 -258 -202 -148 -116 -108
-167 -152 -136 -136 -128 -115 -136 -148 -192 -8 -12 -0 -11 -0 -0 -0 -0 -0 -0 -0 -0 -0 -0 -0 -0 -0 -0 -195 -179 -180 -174 -178 -0 -285 -249 -275 -0 -328 -361 -0 -0 -267 -254 -234 -328 -201 -180 -155 -153
-112 -194 -103 -156 -140 -105 -136 -0 -164 -164 -62 -28 -0 -0 -0 -0 -0 -0 -0 -0 -0 -0 -0 -0 -0 -28 -187 -203 -232 -181 -164 -177 -0 -0 -251 -245 -232 -241 -386 -403 -403 -288 -200 -201 -185 -171 -178 -225 -293
-0 -39 -20 -116 -128 -117 -129 -0 -134 -191 -71 -39 -0 -0 -0 -0 -0 -0 -0 -0 -0 -0 -0 -0 -80 -218 -225 -214 -207 -154 -182 -165 -274 -267 -202 -196 -214 -177 -290 -365 -339 -254 -201 -181 -182 -194 -190 -275 -238
-47 -68 -115 -89 -172 -174 -176 -0 -0 -125 -72 -96 -0 -0 -0 -0 -0 -0 -0 -0 -0 -0 -0 -0 -201 -176 -216 -235 -152 -147 -209 -222 -204 -185 -184 -162 -172 -171 -295 -342 -350 -296 -231 -261 -299 -278 -317 -290 -273
-12 -0 -0 -213 -218 -238 -0 -0 -255 -176 -67 -106 -101 -0 -0 -0 -0 -0 -0 -0 -0 -0 -0 -0 -176 -216 -248 -180 -130 -130 -88 -144 -172 -169 -160 -190 -211 -234 -304 -319 -460 -383 -305 -337 -386 -1 -58 -390 -443
-0 -0 -0 -193 -211 -62 -0 -0 -0 -221 -175 -234 -0 -0 -0 -0 -0 -0 -0 -0 -0 -0 -0 -225 -213 -0 -0 -199 -161 -181 -184 -184 -165 -173 -168 -178 -166 -216 -265 -0 -0 -0 -295 -0 -0 -0 -0 -0 -0
-0 -0 -0 -57 -192 -253 -0 -0 -0 -37 -247 -0 -0 -0 -0 -0 -0 -0 -0 -0 -0 -0 -41 -236 -0 -0 -0 -248 -166 -200 -174 -175 -113 -169 -205 -138 -130 -235 -290 -0 -140 -0 -0 -0 -0 -0 -0 -0 -0
-11 -0 -0 -156 -143 -0 -0 -0 -0 -0 -0 -0 -0 -0 -146 -0 -0 -0 -0 -0 -61 -273 -14 -263 -0 -0 -0 -14 -121 -116 -104 -93 -110 -156 -246 -155 -144 -167 -233 -325 -270 -85 -0 -0 -0 -0 -0 -0 -0
-0 -0 -0 -139 -192 -176 -0 -0 -0 -0 -0 -0 -0 -0 -0 -38 -0 -0 -0 -0 -334 -269 -84 -0 -0 -0 -0 -248 -135 -108 -132 -154 -239 -310 -192 -139 -146 -117 -107 -131 -165 -91 -0 -0 -0 -0 -0 -0 -0
-0 -0 -0 -0 -0 -0 -0 -0 -0 -0 -0 -0 -0 -0 -191 -293 -0 -0 -0 -0 -0 -300 -176 -289 -105 -0 -0 -17 -197 -148 -128 -165 -181 -212 -190 -185 -184 -125 -102 -122 -123 -326 -0 -0 -0 -0 -0 -0 -0
-0 -0 -0 -0 -0 -0 -0 -0 -0 -0 -97 -0 -0 -0 -0 -311 -0 -0 -0 -0 -0 -0 -0 -269 -304 -311 -0 -219 -251 -201 -169 -214 -169 -197 -296 -238 -208 -171 -113 -135 -168 -208 -271 -393 -0 -0 -0 -0 -0
-0 -0 -0 -0 -0 -0 -0 -7 -0 -0 -0 -0 -0 -0 -0 -385 -0 -0 -0 -0 -379 -394 -433 -276 -281 -262 -383 -315 -251 -221 -204 -244 -244 -309 -338 -322 -261 -201 -160 -139 -152 -191 -234 -340 -517 -0 -0 -0 -0
-0 -0 -0 -0 -0 -0 -0 -0 -0 -0 -0 -0 -0 -0 -38 -0 -0 -0 -0 -0 -127 -397 -492 -316 -281 -236 -352 -337 -272 -203 -157 -169 -220 -329 -337 -298 -326 -250 -180 -137 -128 -143 -156 -235 -404 -408 -494 -584 -0
-0 -0 -0 -0 -0 -0 -0 -0 -0 -0 -0 -0 -0 -0 -408 -472 -409 -0 -0 -0 -437 -404 -401 -317 -280 -248 -364 -367 -322 -254 -235 -192 -199 -265 -295 -295 -277 -263 -217 -150 -121 -116 -117 -144 -257 -285 -374 -480 -475
-0 -0 -0 -0 -0 -0 -0 -0 -0 -0 -0 -380 -315 -0 -0 -493 -447 -415 -0 -0 -0 -178 -170 -398 -275 -251 -326 -374 -343 -320 -241 -185 -174 -192 -263 -300 -284 -258 -257 -235 -154 -118 -104 -116 -152 -172 -187 -225 -231
-0 -0 -0 -0 -0 -0 -0 -0 -0 -0 -0 -536 -503 -474 -626 -515 -423 -394 -180 -0 -0 -564 -582 -485 -324 -276 -296 -345 -337 -331 -267 -186 -150 -188 -229 -284 -281 -266 -228 -207 -197 -160 -132 -105 -115 -134 -125 -144 -148
Wind_Speed
6 5 1 2 1 1 1 3 3 6 3 2 5 3 8 6 2 3 4 5 9 7 5 7 12 13 13 12 11 12 11 11 11 13 13 13 13 13 12 12 12 12 11 10 12 12 14 11 12
4 4 1 1 2 3 3 3 8 3 6 12 7 6 6 5 4 10 5 7 8 7 5 5 11 12 12 12 11 11 11 12 12 14 13 13 12 13 13 12 12 11 11 10 11 11 12 11 10
4 1 1 1 1 2 2 3 13 11 6 4 6 5 3 4 11 8 7 9 8 6 5 7 12 12 13 12 11 11 12 13 13 13 12 12 12 11 11 12 12 11 10 10 9 10 10 10 9
1 1 0 0 2 1 5 6 11 10 6 7 11 8 5 6 7 6 11 10 8 5 6 10 13 13 12 12 11 11 11 11 11 12 11 10 10 10 10 10 8 10 9 9 9 10 10 9 8
2 0 1 1 2 2 6 9 3 4 5 5 3 4 6 3 12 14 11 9 8 5 5 6 11 12 12 12 10 10 10 10 11 11 11 9 8 9 10 9 9 8 7 7 8 9 10 9 8
2 2 2 3 6 7 6 7 3 5 6 8 10 7 3 9 14 9 9 7 5 6 4 4 11 11 11 12 11 10 9 8 10 10 9 8 7 7 7 7 8 7 6 7 7 7 8 7 7
1 1 1 3 6 4 4 3 4 4 8 6 8 7 4 5 8 9 7 6 5 4 4 4 5 8 12 11 10 10 9 8 7 7 6 7 7 5 6 6 6 7 7 6 7 7 6 6 6
2 1 3 4 3 4 2 2 5 5 4 5 11 7 9 6 10 9 7 6 5 3 4 4 3 4 4 4 9 8 8 7 6 6 5 4 4 6 6 7 9 10 9 8 7 7 5 6 7
1 5 3 3 2 5 4 3 1 4 8 1 4 6 10 15 13 10 7 5 4 3 3 4 4 4 3 3 5 7 7 6 5 3 4 2 2 3 6 5 9 11 11 10 9 7 5 6 6
2 3 5 3 4 4 13 5 1 5 4 8 13 15 16 14 13 12 9 10 8 5 3 4 4 4 3 2 3 3 2 3 2 2 3 2 2 1 4 5 10 10 11 10 8 7 6 7 4
4 4 4 4 5 5 8 11 7 10 6 1 16 15 15 13 10 9 7 6 9 5 3 5 4 4 4 2 2 1 1 2 1 1 2 2 2 4 3 3 3 3 7 3 5 5 3 4 3
4 5 5 7 6 6 7 5 6 7 3 1 12 16 13 13 10 9 8 7 6 6 6 5 6 5 4 2 2 3 2 2 1 2 3 3 2 3 3 2 3 3 2 4 3 3 3 3 2
2 4 4 4 8 7 11 8 8 2 4 11 14 15 13 13 10 6 7 5 5 6 6 6 6 6 4 2 3 2 2 2 2 2 3 3 3 3 3 3 2 3 3 3 3 3 2 2 1
2 8 7 5 7 6 7 3 1 2 2 15 17 14 13 12 11 5 5 6 6 6 7 6 6 6 5 4 4 3 2 2 2 2 3 4 3 4 3 3 2 3 3 3 2 2 1 1 0
7 7 5 3 2 4 11 2 5 10 5 14 16 13 13 12 8 11 10 8 9 6 6 7 6 6 6 5 4 3 3 3 2 1 4 4 4 3 4 3 3 2 2 4 3 2 1 1 2
3 4 4 3 3 4 3 5 10 10 11 14 15 14 13 10 13 11 10 10 8 6 8 8 6 6 6 5 4 3 4 3 3 2 2 4 4 5 4 3 2 3 3 2 2 2 1 2 3
5 2 2 2 5 6 4 4 5 8 8 8 16 15 14 12 10 10 11 11 9 8 7 6 8 8 6 6 4 3 4 3 3 3 3 5 5 5 4 3 3 3 3 2 2 2 2 2 2
4 3 1 4 4 4 7 5 5 12 10 10 12 13 14 14 16 10 10 10 8 8 8 7 6 7 6 4 3 2 2 2 2 2 3 4 3 5 5 3 4 4 2 1 2 2 1 0 2
4 4 3 2 4 4 7 3 10 13 10 9 7 14 13 13 13 11 10 9 8 6 7 8 7 6 5 2 3 2 3 2 1 2 2 3 4 5 5 3 3 3 4 3 2 2 2 2 1
3 1 1 1 4 3 3 6 4 11 14 12 12 9 15 11 9 11 11 10 10 11 11 8 9 6 4 3 2 2 2 2 2 2 2 4 4 5 4 6 4 3 3 3 3 2 2 1 0
2 3 3 2 4 2 5 5 6 7 9 9 9 8 7 13 13 12 12 14 12 12 10 10 10 9 5 5 3 3 3 3 2 1 2 3 4 4 6 4 4 4 3 3 3 4 3 3 0
3 7 3 7 3 2 1 5 6 8 15 11 14 14 14 13 15 15 16 14 14 14 11 8 7 10 7 7 3 4 4 4 3 3 2 2 4 4 6 7 5 5 3 4 2 2 2 3 2
7 7 5 4 3 2 2 2 7 9 11 20 19 18 17 16 17 18 18 19 18 14 12 10 8 8 8 8 6 5 4 2 2 2 4 3 2 4 4 5 5 4 3 3 4 2 3 2 3
3 4 7 5 4 2 6 5 6 7 15 13 14 15 17 16 18 18 19 18 16 14 12 10 9 7 8 9 7 8 7 6 4 3 3 3 2 2 4 4 4 5 4 4 3 3 3 3 2
5 6 2 3 2 7 3 2 11 4 6 11 19 18 18 17 16 16 17 18 16 16 15 12 11 8 8 10 8 7 7 7 8 6 5 5 3 3 5 4 4 3 3 4 4 4 3 3 2
7 10 7 6 4 4 3 7 8 10 8 8 12 20 17 18 17 19 20 19 18 18 17 16 13 11 8 10 10 7 7 4 4 5 4 4 4 4 4 4 4 4 3 3 3 2 2 2 2
5 4 7 7 2 2 4 8 10 8 5 7 11 16 20 19 19 20 19 19 20 19 19 18 15 12 10 11 9 7 6 5 6 6 4 3 3 3 4 4 4 4 4 4 3 2 3 3 3
10 9 5 3 8 5 5 4 7 10 8 3 8 15 16 16 16 16 16 17 16 15 16 16 16 16 12 12 10 9 8 7 6 5 6 6 4 4 5 5 5 5 5 5 5 3 3 4 3
3 3 5 6 5 7 1 8 8 8 5 5 7 7 13 16 17 17 17 16 14 12 14 15 13 14 11 10 9 9 9 8 5 6 6 7 6 6 6 6 5 6 6 6 6 5 5 5 4
8 10 7 7 4 1 4 9 4 8 5 6 6 8 9 13 16 13 15 16 13 13 13 15 15 15 13 10 10 10 9 8 8 7 7 6 8 6 7 6 6 7 8 7 7 7 6 7 7
Wind_Direction
152 133 132 143 78 87 339 55 94 97 91 330 127 124 114 23 73 179 155 144 130 127 133 133 139 137 131 128 129 133 129 127 130 124 114 112 111 109 110 106 105 104 105 105 107 106 109 106 108
145 153 254 39 83 72 305 346 122 122 129 101 90 86 55 72 73 116 112 142 124 127 125 135 134 132 129 127 135 135 136 124 120 116 121 120 112 120 115 109 106 105 104 114 117 121 109 115 111
138 41 10 344 45 113 131 60 117 119 133 108 105 69 74 85 107 131 134 127 110 116 124 148 139 141 136 134 132 128 127 127 127 127 124 121 119 114 118 115 116 110 112 113 118 121 113 111 113
34 164 342 152 41 61 128 139 124 123 64 58 102 71 67 116 140 136 129 125 124 133 132 148 141 137 133 131 127 123 126 126 124 124 119 129 122 129 118 112 110 120 123 116 117 112 110 109 101
147 132 329 145 40 51 96 138 144 84 93 92 107 92 86 38 110 126 127 133 135 126 139 142 143 131 125 125 119 118 117 116 121 122 128 118 112 111 108 108 106 103 110 115 117 112 115 108 94
75 67 22 38 94 84 87 47 35 75 93 120 93 92 61 127 123 132 124 128 129 128 143 140 137 134 133 125 130 128 126 124 123 121 115 117 111 104 108 118 125 126 122 111 102 106 105 96 89
95 74 48 325 95 55 61 8 41 39 103 74 131 102 114 135 128 121 113 112 109 123 119 101 115 148 139 134 136 135 128 123 121 122 130 130 133 143 153 152 138 133 129 118 122 110 115 112 102
108 107 21 28 53 67 51 74 137 88 51 92 144 152 158 163 129 104 97 99 103 116 120 129 127 91 95 135 139 136 136 138 139 143 144 140 156 171 148 131 154 145 153 155 155 144 133 119 105
305 47 3 342 85 117 57 124 342 67 128 13 119 115 120 132 119 108 121 120 111 127 147 143 134 108 115 123 156 141 144 156 159 154 167 121 40 38 87 113 128 146 156 160 160 151 137 121 109
86 155 194 219 137 116 75 57 281 108 50 67 88 96 119 135 138 143 166 170 170 169 188 164 143 142 157 170 111 132 115 100 77 48 14 57 106 133 82 113 123 136 150 154 147 136 132 80 62
171 198 144 179 134 109 101 46 32 123 68 153 145 138 144 147 149 153 177 181 187 166 164 182 169 171 179 174 141 97 89 110 68 329 157 126 100 76 68 65 61 67 100 91 103 96 96 109 102
188 198 162 167 151 125 124 113 65 40 15 174 148 145 150 158 163 167 168 181 190 174 176 190 178 166 196 197 145 159 178 124 126 149 161 131 106 94 90 86 80 84 101 103 99 101 106 91 101
208 123 84 137 164 111 118 110 125 56 5 134 143 152 162 167 175 174 169 174 171 181 178 183 174 173 181 195 161 169 183 145 165 144 148 140 142 133 102 103 114 108 108 106 106 103 122 123 109
125 89 105 111 113 107 110 141 330 121 29 145 155 166 170 178 180 152 171 181 181 187 181 173 187 176 178 186 181 195 166 167 173 170 152 160 140 144 132 123 135 133 142 124 115 131 188 216 277
126 100 84 42 131 105 112 28 232 157 183 154 165 172 178 190 175 188 188 189 182 187 176 178 185 186 182 191 182 181 192 171 168 210 180 158 168 160 160 146 157 155 138 121 138 162 211 276 298
47 49 96 196 184 148 130 247 205 161 174 185 175 176 185 188 195 197 190 193 191 170 181 168 173 187 179 177 179 163 171 183 160 203 212 202 180 166 166 153 169 156 138 138 158 168 210 248 254
18 226 134 202 188 153 167 256 165 169 194 211 184 181 186 192 201 197 189 192 174 190 177 180 163 178 189 161 169 166 174 191 188 183 198 228 193 176 161 165 157 155 132 167 188 189 191 204 235
177 139 183 230 200 171 203 238 168 181 193 211 192 188 188 192 200 194 189 188 176 180 186 174 172 171 162 140 119 86 130 213 177 193 232 207 198 155 157 155 150 153 159 172 176 175 164 281 270
145 162 201 223 167 141 222 259 180 189 195 204 206 195 195 195 199 183 181 186 168 172 180 174 162 185 140 137 137 143 176 166 147 203 275 246 165 158 142 122 117 128 138 164 132 107 111 50 70
184 184 354 94 153 155 207 261 172 193 201 199 193 204 198 193 184 188 173 177 186 181 188 180 169 173 177 148 172 143 160 140 122 145 190 226 189 168 151 149 144 158 147 127 177 173 107 91 56
244 161 192 207 143 266 131 294 197 206 208 208 208 196 208 189 182 189 181 182 182 190 187 192 171 173 182 167 117 82 74 66 92 176 190 200 195 173 148 166 155 160 147 171 202 151 152 148 46
232 184 205 129 117 229 209 275 237 200 206 215 217 204 205 196 191 179 187 184 186 195 186 192 175 166 173 169 158 157 175 150 202 170 154 208 165 172 160 161 171 169 172 186 200 136 143 126 167
225 165 181 142 123 46 200 101 267 165 213 222 218 213 203 192 187 185 186 188 192 181 184 191 179 174 163 165 175 169 175 186 121 137 155 163 165 177 176 159 159 162 179 183 172 154 131 126 149
173 94 50 52 89 339 226 170 256 194 206 211 222 215 199 190 190 187 188 187 186 183 184 188 174 190 170 168 183 176 184 165 152 157 172 187 178 188 183 168 173 167 175 175 181 142 149 168 138
99 81 0 3 27 221 264 164 246 225 213 197 195 202 198 188 186 183 182 187 188 180 184 186 178 197 176 177 178 189 191 179 187 187 182 177 181 193 197 174 168 183 184 170 157 158 162 174 163
176 152 158 177 196 251 99 239 252 217 230 218 203 195 184 186 184 184 188 185 185 185 187 185 181 192 178 178 184 185 187 184 190 194 195 201 200 189 182 191 181 187 199 182 156 150 176 187 210
189 157 180 103 25 64 232 291 302 281 222 215 187 167 184 190 186 185 185 188 187 186 190 186 182 192 184 185 184 186 178 183 199 191 199 212 223 192 182 184 194 199 202 196 176 207 211 197 205
157 171 101 357 163 205 279 266 243 306 299 328 190 179 181 179 186 177 181 185 189 189 187 192 187 190 184 181 187 193 188 187 194 180 200 212 218 201 185 190 204 206 204 197 189 207 220 214 228
88 162 65 123 139 163 213 263 222 264 285 208 197 173 164 171 183 179 174 177 181 183 179 185 188 188 181 187 182 188 195 191 197 188 203 209 198 201 205 200 204 213 215 204 199 216 223 234 249
162 179 157 130 225 213 163 262 331 284 311 184 191 167 172 166 175 175 166 160 166 179 180 182 184 185 189 178 178 188 180 189 197 205 202 194 212 198 208 206 208 220 220 208 209 218 224 229 238